Dewpoint
33 35 38 43 49 54 58 59 61 60 60 60 59 58 56 56 55 53 52 51 49 49 48 45 46 43 41 40 41 44 44 43
37 41 41 45 48 52 58 60 60 60 58 56 54 53 53 52 51 50 50 50 49 49 47 45 46 43 42 44 43 45 45 45
39 43 47 48 49 51 55 59 60 59 57 55 54 52 51 50 49 49 48 49 48 48 47 44 46 42 43 44 44 45 45 44
39 43 48 50 52 53 54 55 59 57 55 52 50 49 49 48 47 47 48 48 48 47 46 45 44 42 43 45 44 46 44 43
41 43 46 49 52 54 54 55 55 54 51 50 49 47 46 45 46 45 45 45 45 43 44 42 44 43 43 45 44 46 44 42
41 43 45 47 49 51 52 52 52 51 51 49 47 46 44 43 43 42 42 43 42 41 41 41 40 40 43 43 44 45 44 43
41 44 44 44 47 50 50 50 49 49 50 48 46 44 42 42 42 42 42 42 42 42 43 42 43 42 42 44 43 45 44 43
39 39 39 41 43 46 49 49 49 49 49 48 48 46 45 43 43 43 42 42 43 44 45 43 43 42 41 43 43 43 43 43
32 34 36 38 42 43 45 47 48 49 49 48 48 47 47 46 46 45 44 44 43 43 43 42 41 40 40 40 40 42 43 42
28 26 26 26 27 39 44 45 45 46 47 48 48 49 48 47 47 47 46 44 42 43 42 41 41 40 40 40 39 38 37 39
24 23 24 25 28 29 42 44 45 45 47 47 46 47 48 48 48 45 44 43 43 42 41 41 40 40 39 38 36 36 36 37
22 23 24 26 28 30 35 41 42 44 45 47 48 50 49 48 47 46 44 43 43 42 42 41 40 39 38 37 35 33 33 32
21 22 24 27 31 33 35 36 40 43 46 47 49 51 49 49 48 45 43 42 41 41 39 37 35 34 35 34 31 29 30 29
20 23 24 29 34 36 37 37 39 41 43 46 48 49 49 49 48 46 42 40 40 39 39 36 33 33 32 31 29 27 27 27
18 20 24 36 35 34 36 36 38 40 41 44 45 47 49 48 47 46 42 39 38 38 38 37 35 33 31 31 28 28 29 27
19 21 25 30 31 33 36 37 38 40 40 40 42 46 48 48 47 46 44 42 38 37 37 36 34 33 32 35 34 33 30 28
24 23 28 29 29 31 31 31 31 35 38 40 40 42 44 48 47 46 44 43 41 38 37 37 36 34 32 33 34 34 32 29
31 31 30 29 30 29 29 31 32 31 34 38 39 39 42 46 46 45 44 42 41 39 38 36 36 35 34 34 33 34 33 33
31 32 33 30 29 29 33 34 35 36 33 36 39 41 41 42 44 45 44 41 40 38 37 36 35 34 34 33 33 34 34 33
Wind_Speed
4 5 7 7 9 10 13 14 13 12 12 9 10 11 13 13 14 14 17 17 18 16 15 14 14 15 15 16 16 17 18 18
7 7 6 4 3 6 10 12 9 11 11 10 12 15 15 15 14 14 16 17 19 18 14 16 16 17 16 16 16 17 17 15
5 8 9 6 4 1 5 9 10 13 13 13 13 14 14 15 14 14 15 16 16 17 15 16 16 15 15 17 17 17 16 16
6 8 9 8 7 3 1 4 6 8 5 4 1 1 2 11 13 10 13 13 14 14 12 10 16 16 16 16 17 20 19 19
7 7 9 8 8 6 3 3 6 6 6 9 11 12 10 1 1 3 8 4 6 8 5 3 6 8 11 15 16 17 16 21
5 5 5 6 6 4 2 2 4 7 9 11 12 11 9 7 10 11 8 7 6 4 10 9 6 6 5 6 10 14 14 19
3 3 2 2 2 1 2 5 6 8 12 15 18 20 20 18 16 15 16 16 13 16 11 12 11 8 6 5 5 9 11 12
3 1 2 4 6 6 7 10 11 13 14 14 15 17 18 21 19 15 13 12 12 12 12 10 11 12 8 4 3 8 9 9
4 5 6 11 11 13 13 14 15 15 16 15 15 17 15 14 14 13 14 13 12 10 10 11 10 10 8 5 2 7 10 9
9 14 18 22 21 17 15 17 17 14 14 13 15 15 15 15 16 16 13 7 8 9 9 9 11 10 7 5 5 9 8 10
20 24 22 21 22 22 11 15 19 17 16 15 16 16 18 14 8 13 14 13 13 14 11 8 8 10 10 9 8 8 10 11
26 23 21 20 20 16 17 16 18 17 19 16 12 7 6 11 12 11 10 14 19 16 15 14 13 14 14 13 12 13 15 14
22 21 20 20 17 14 19 16 17 15 17 19 10 10 10 10 14 14 15 15 12 15 17 17 15 15 15 16 15 16 16 12
22 21 18 14 13 9 11 11 12 14 14 16 13 15 19 17 19 19 18 17 16 17 18 18 18 16 15 14 14 15 12 10
24 22 18 7 10 10 9 9 9 11 13 16 16 16 16 19 19 18 23 24 22 20 20 18 17 18 16 16 13 10 9 10
27 23 16 10 8 8 10 8 11 11 13 14 15 15 15 13 16 17 16 19 22 22 22 21 20 20 18 17 15 15 12 8
22 21 11 8 9 9 11 13 12 12 12 14 14 13 15 15 15 18 19 20 20 22 24 23 23 19 19 16 14 12 12 13
22 19 11 9 11 11 14 15 15 14 14 14 14 13 11 15 16 17 18 21 22 21 21 22 20 17 24 20 16 11 8 6
22 21 15 14 9 11 11 14 15 14 14 12 10 10 11 9 13 16 17 19 19 20 22 23 19 19 24 23 21 14 11 11
Wind_Direction
26 332 318 256 236 234 193 196 185 188 199 215 219 211 209 209 204 198 200 205 201 198 216 201 186 206 197 195 192 192 181 176
45 36 22 341 277 244 172 195 195 189 184 184 218 222 215 206 212 209 198 203 201 201 218 192 196 205 197 196 193 192 179 171
81 63 57 53 40 223 205 187 209 190 188 213 221 228 223 212 198 198 205 203 200 206 213 193 197 210 202 188 199 186 179 168
82 65 56 57 55 33 112 231 202 170 186 162 155 337 289 223 208 186 197 203 200 209 219 217 199 213 197 191 198 196 177 173
68 59 55 54 48 48 75 136 173 177 160 174 199 210 202 233 274 106 131 192 171 118 133 65 356 225 194 194 199 204 178 181
73 67 48 57 55 63 88 182 215 215 203 181 173 170 156 139 127 126 141 150 139 141 125 126 89 328 302 204 207 208 201 189
135 68 34 43 23 332 218 219 227 219 209 196 193 186 172 168 177 181 184 179 183 173 163 162 149 156 263 258 250 215 233 222
182 190 272 298 287 264 240 232 229 218 222 222 217 214 204 200 197 201 192 190 196 185 177 164 156 171 199 197 219 263 262 250
261 279 281 285 280 282 274 264 251 221 217 220 219 217 209 218 211 212 201 202 202 183 166 155 151 162 157 146 151 263 251 257
287 301 303 309 304 257 256 272 267 245 231 230 221 218 212 205 213 206 208 172 127 155 148 155 152 140 132 124 196 234 248 239
293 306 307 303 302 296 248 262 262 251 239 237 236 215 202 218 171 181 170 157 159 163 156 162 146 157 162 164 201 205 229 221
311 310 310 305 300 288 285 246 251 253 245 249 261 296 176 166 175 193 201 176 169 174 174 180 186 186 175 179 189 201 210 207
305 308 310 304 306 291 287 266 255 246 252 259 237 165 178 212 214 177 176 179 174 174 170 183 182 183 178 184 190 194 205 192
305 306 302 302 301 290 292 293 288 283 258 251 242 212 196 206 217 178 171 164 173 170 168 181 176 182 179 184 188 187 187 186
300 302 296 285 284 280 272 283 286 286 278 267 257 249 234 217 211 197 173 171 180 183 179 184 180 177 180 177 174 179 172 186
306 301 296 291 269 277 274 270 277 268 276 274 265 248 246 225 205 196 193 186 179 180 180 176 171 179 178 178 181 169 176 172
304 294 286 280 275 282 294 283 281 277 271 272 268 251 233 223 207 196 194 190 184 186 188 186 180 175 162 151 154 167 175 176
335 322 291 284 291 306 296 303 294 278 266 268 270 271 245 205 204 202 200 193 183 181 186 185 173 156 161 159 153 162 159 162
310 301 291 282 290 297 310 311 305 291 276 274 278 273 262 233 202 201 201 182 186 178 190 191 171 157 158 158 158 146 155 178